Location: Newark
(47.3150°N, 5.1150°E)
Time: 22:45:48
(UTC+00:00)

AO-7 - Pass Details

Date: 23 December 2019
Orbit: 1440 x 1458 km, 101.8° (Epoch: 20 January)

Event Time Altitude Azimuth Distance (km) Brightness Sun altitude
Rises 02:08:37 0° 25° (NNE) 4,568 ? -51.7°
Reaches altitude 10° 02:12:03 10° 38° (NE) 3,587 ? -51.2°
Maximum altitude 02:18:52 27° 93° (E) 2,517 ? -50.2°
Enters shadow 02:19:44 26° 102° (ESE) 2,538 ? -50.0°
